Lid_Strength_Index
1 1 3 1 1 0 1 1 1 1 0 1 0 0 0 1 1 1 1 1 1 1 1 1 1 1 1 1 1 1 2 2 4 3 1 1 1 1 0 -0 -0 -0 -0
0 1 1 1 1 1 1 1 0 1 0 0 1 1 1 1 0 1 1 1 1 1 1 1 1 1 1 1 1 2 2 1 3 4 2 2 1 1 1 1 -0 -1 -0
0 0 0 0 1 1 1 1 1 1 1 1 1 1 1 1 1 1 1 1 1 1 1 1 1 1 2 1 1 2 2 2 2 3 3 2 1 1 1 1 1 0 -0
1 1 1 1 1 1 1 1 1 1 1 1 1 1 1 1 1 1 1 1 1 1 0 0 1 1 1 1 2 2 1 2 2 3 3 3 2 1 1 2 3 1 1
1 1 1 1 1 1 1 1 1 1 1 1 1 1 1 1 1 1 1 1 1 1 1 1 1 1 1 1 1 1 2 2 3 3 3 3 3 3 3 2 3 2 1
1 2 1 1 1 1 1 1 1 1 1 1 1 1 1 1 3 3 1 1 1 1 2 1 1 1 1 1 2 1 1 2 3 3 3 4 4 4 4 5 5 6 6
1 1 1 1 1 1 1 1 1 2 1 1 1 1 1 1 5 4 3 1 1 1 1 1 1 1 1 1 2 2 2 2 2 2 3 3 4 3 4 5 4 4 5
2 2 1 1 2 1 1 2 1 1 2 2 2 1 2 3 6 5 3 1 1 1 1 1 1 1 1 1 1 1 1 3 1 1 1 2 1 1 2 2 1 2 2
2 2 2 1 2 2 2 2 1 2 2 1 1 1 2 4 6 6 3 1 1 1 1 0 1 1 4 5 1 3 3 4 4 3 3 3 2 2 1 1 2 3 4
2 2 1 1 2 2 2 2 1 1 2 1 1 1 3 3 6 6 3 1 2 2 2 3 3 4 6 5 1 2 4 3 3 3 3 3 2 2 1 0 1 3 3
1 1 1 1 1 1 1 1 1 2 2 2 2 1 1 2 3 6 5 2 2 2 2 4 6 6 7 5 4 1 2 1 1 1 1 1 1 0 0 0 0 1 2
1 1 1 1 1 1 2 2 1 2 2 2 2 3 1 2 5 6 6 6 3 2 2 4 6 7 7 5 4 4 3 2 1 1 2 2 2 1 1 0 -0 -0 -0
2 2 2 2 3 4 3 2 2 2 3 3 3 3 3 5 5 6 6 5 4 3 4 5 7 8 7 6 6 5 5 2 1 2 2 2 1 1 0 0 -0 -1 -0
2 2 2 2 2 5 7 6 2 2 3 3 4 6 6 6 5 5 4 5 5 5 5 5 5 5 5 4 4 4 3 3 2 2 2 1 1 1 1 1 1 1 2
2 2 2 2 2 3 5 9 7 9 6 4 5 6 7 7 7 8 6 4 4 5 4 4 4 3 3 4 2 2 4 3 2 2 2 2 2 2 1 1 1 1 2
2 2 2 3 3 4 4 5 7 8 9 10 10 7 8 9 10 11 11 10 9 7 3 4 4 3 4 3 3 3 4 3 2 2 2 1 2 2 2 1 1 2 3
2 2 2 3 4 4 4 6 6 6 8 10 11 11 11 11 10 11 10 9 8 7 6 4 3 2 3 2 3 4 3 3 3 1 2 2 1 1 3 2 2 2 2
1 2 1 2 3 4 4 5 5 6 7 8 10 11 12 11 11 11 11 7 6 6 5 4 4 3 3 3 3 3 3 3 2 2 2 1 1 1 2 2 2 2 3
1 1 1 2 2 3 4 4 5 5 6 6 5 7 10 12 11 10 11 7 5 5 4 4 4 3 4 3 3 2 3 2 2 1 1 1 1 1 2 2 2 5 4
1 1 1 1 2 2 2 4 4 4 5 6 6 5 4 6 4 4 4 4 4 3 3 3 3 3 3 2 2 1 1 1 1 1 1 1 1 1 2 2 2 2 2
1 1 1 2 1 1 2 2 2 3 3 4 3 3 6 3 4 3 3 3 3 3 3 3 2 1 1 1 1 1 1 1 1 1 1 1 1 2 1 1 1 2 1
1 2 2 2 2 2 1 2 2 2 2 2 2 1 7 3 3 3 2 2 2 1 1 1 1 1 1 1 1 1 1 1 1 1 1 1 1 1 1 1 1 1 2
1 2 1 2 1 1 1 1 2 2 2 2 2 2 2 2 2 1 1 1 1 1 0 0 1 1 0 0 -0 -0 0 1 0 0 0 1 1 1 1 2 2 2 2
1 1 1 1 1 1 1 1 1 3 1 2 2 2 2 1 1 1 1 1 0 0 -0 -0 -0 -1 -0 -0 -0 -0 -0 -1 -1 0 0 1 1 1 1 1 1 2 2
1 1 1 1 1 1 1 1 1 2 2 2 2 1 1 1 1 1 1 1 1 0 1 -0 0 -1 -0 0 -0 1 8 13 3 7 -0 -0 0 1 1 1 1 1 2
1 1 1 1 1 1 1 1 1 1 1 1 1 1 1 1 1 1 1 0 1 0 0 0 -0 -0 -1 1 2 9 13 13 7 11 4 2 3 3 3 3 2 3 2